WAT1108 KBKL-KCDW

Flight info

Callsign WAT1108
Flight time N/A
Altitude 25000
Route MYCAR5 MYCAR JHW LVZ5
Aircraft C550/M-VGDW/C

Departure

Time 2026-04-12 21:14
Airport Burke Lakefront Airport (KBKL)

Arrival

Time N/A
Airport Essex County Airport (KCDW)
Time Latitude Longitude Altitude Speed Heading
2026-04-12 20:36 41.51244 -81.68709 582 ft 0 kts 360°
2026-04-12 21:09 41.51260 -81.68715 581 ft 6 kts 339°
2026-04-12 21:09 41.51310 -81.68748 581 ft 8 kts 334°
2026-04-12 21:09 41.51384 -81.68752 581 ft 10 kts 25°
2026-04-12 21:10 41.51430 -81.68678 580 ft 9 kts 55°
2026-04-12 21:10 41.51467 -81.68601 580 ft 11 kts 58°
2026-04-12 21:10 41.51519 -81.68491 580 ft 14 kts 59°
2026-04-12 21:10 41.51575 -81.68368 581 ft 15 kts 55°
2026-04-12 21:11 41.51643 -81.68236 580 ft 18 kts 57°
2026-04-12 21:11 41.51718 -81.68089 580 ft 16 kts 56°
2026-04-12 21:11 41.51776 -81.67956 580 ft 16 kts 59°
2026-04-12 21:11 41.51838 -81.67817 579 ft 17 kts 59°
2026-04-12 21:12 41.51904 -81.67673 577 ft 18 kts 56°
2026-04-12 21:12 41.51978 -81.67522 576 ft 19 kts 59°
2026-04-12 21:12 41.52052 -81.67368 576 ft 18 kts 56°
2026-04-12 21:12 41.52115 -81.67226 576 ft 16 kts 58°
2026-04-12 21:13 41.52179 -81.67097 576 ft 15 kts 54°
2026-04-12 21:13 41.52264 -81.67088 574 ft 12 kts 327°
2026-04-12 21:13 41.52334 -81.67152 572 ft 11 kts 325°
2026-04-12 21:13 41.52338 -81.67248 572 ft 21 kts 237°
2026-04-12 21:14 41.52116 -81.67714 574 ft 93 kts 237°
2026-04-12 21:14 41.51691 -81.68653 852 ft 123 kts 237°
2026-04-12 21:14 41.51333 -81.69666 1558 ft 116 kts 239°
2026-04-12 21:14 41.51340 -81.70744 2189 ft 121 kts 286°
2026-04-12 21:15 41.51918 -81.71645 2558 ft 136 kts 330°
2026-04-12 21:15 41.52892 -81.72182 2898 ft 158 kts 342°
2026-04-12 21:15 41.54001 -81.72681 3236 ft 164 kts 342°
2026-04-12 21:15 41.55152 -81.73187 3660 ft 175 kts 345°
2026-04-12 21:16 41.56367 -81.73080 4087 ft 178 kts 31°
2026-04-12 21:16 41.57235 -81.71933 4516 ft 180 kts 62°
2026-04-12 21:16 41.58124 -81.70595 4939 ft 196 kts 53°
2026-04-12 21:16 41.59067 -81.69143 5364 ft 208 kts 56°
2026-04-12 21:17 41.60036 -81.67588 5781 ft 218 kts 45°
2026-04-12 21:17 41.61000 -81.65860 6262 ft 226 kts 45°
2026-04-12 21:17 41.62065 -81.64226 6774 ft 231 kts 43°
2026-04-12 21:17 41.63156 -81.62517 7291 ft 237 kts 44°
2026-04-12 21:18 41.64256 -81.60766 7808 ft 242 kts 45°
2026-04-12 21:18 41.65374 -81.58961 8213 ft 252 kts 46°
2026-04-12 21:18 41.66552 -81.57045 8611 ft 260 kts 47°
2026-04-12 21:18 41.67746 -81.55099 9002 ft 268 kts 47°
2026-04-12 21:19 41.68972 -81.53101 9394 ft 273 kts 48°
2026-04-12 21:19 41.70220 -81.51058 9788 ft 278 kts 48°
2026-04-12 21:19 41.71500 -81.48958 10187 ft 282 kts 48°
2026-04-12 21:19 41.72783 -81.46865 10580 ft 285 kts 48°
2026-04-12 21:20 41.74093 -81.44721 10978 ft 288 kts 48°
2026-04-12 21:20 41.75393 -81.42590 11373 ft 289 kts 48°
2026-04-12 21:20 41.76700 -81.40450 11768 ft 291 kts 48°
2026-04-12 21:20 41.77993 -81.38228 12165 ft 293 kts 58°
2026-04-12 21:21 41.78906 -81.35708 12568 ft 293 kts 64°
2026-04-12 21:21 41.79675 -81.33096 12956 ft 293 kts 72°
2026-04-12 21:21 41.80339 -81.30406 13342 ft 294 kts 73°
2026-04-12 21:21 41.80985 -81.27754 13724 ft 293 kts 73°
2026-04-12 21:22 41.81644 -81.25073 13939 ft 301 kts 72°
2026-04-12 21:22 41.82321 -81.22330 13971 ft 314 kts 72°
2026-04-12 21:22 41.83028 -81.19466 14230 ft 317 kts 72°
2026-04-12 21:22 41.83735 -81.16591 14487 ft 319 kts 72°
2026-04-12 21:23 41.84443 -81.13713 14742 ft 321 kts 72°
2026-04-12 21:23 41.85167 -81.10764 15004 ft 322 kts 72°
2026-04-12 21:23 41.85888 -81.07810 15264 ft 324 kts 72°
2026-04-12 21:23 41.86601 -81.04860 15522 ft 325 kts 72°
2026-04-12 21:24 41.87316 -81.01901 15780 ft 326 kts 72°
2026-04-12 21:24 41.88042 -80.98887 16043 ft 326 kts 71°
2026-04-12 21:24 41.88756 -80.95923 16300 ft 327 kts 71°
2026-04-12 21:24 41.89481 -80.92906 16565 ft 327 kts 71°
2026-04-12 21:25 41.90196 -80.89929 16823 ft 327 kts 71°
2026-04-12 21:25 41.90919 -80.86918 17087 ft 327 kts 71°
2026-04-12 21:25 41.91632 -80.83943 17347 ft 326 kts 71°
2026-04-12 21:25 41.92350 -80.80936 17610 ft 326 kts 72°
2026-04-12 21:26 41.92916 -80.77904 17872 ft 326 kts 75°
2026-04-12 21:26 41.93962 -80.71812 18396 ft 325 kts 77°
2026-04-12 21:26 41.94464 -80.68748 18661 ft 325 kts 77°
2026-04-12 21:27 41.94950 -80.65766 18918 ft 324 kts 77°
2026-04-12 21:27 41.95440 -80.62748 19180 ft 323 kts 76°
2026-04-12 21:27 41.95935 -80.59702 19446 ft 323 kts 76°
2026-04-12 21:27 41.96432 -80.56637 19713 ft 322 kts 76°
2026-04-12 21:28 41.96918 -80.53633 19976 ft 321 kts 76°
2026-04-12 21:28 41.97405 -80.50619 20241 ft 320 kts 76°
2026-04-12 21:28 41.97892 -80.47595 20509 ft 320 kts 76°
2026-04-12 21:28 41.98378 -80.44579 20777 ft 319 kts 76°
2026-04-12 21:29 41.98861 -80.41573 21045 ft 318 kts 76°